Voltar ao catálogo

STARLINK-33941

AtivoComunicaçõesVLEO
NORAD 63765·PAYLOAD·🇺🇸 United States

Lançado Apr 29, 2025 de Cape Canaveral Space Force Station

Loading…

Próximas Passagens (próximas 24 horas)

TLE

AtualizadoSource: CelesTrak SupGP

Época: Sep 14, 2026, 21:44 UTC

1 63765C 25089Q   26257.90604167  .00060299  00000+0  21837-2 0  2571
2 63765  43.0045  56.7976 0001743 277.2842  93.2994 15.27553036    16

Acompanhe STARLINK-33941 em tempo real com AllMySat

Download on the App Store